Date String (YYYY-MM-DD hh:mm:ss) UTC,Instrument flags,Ambient pressure (hPa),Sample flow (lpm),Bypass flow (lpm),Sample temperature (°C),Ambient temperature (°C),ASC tube jacket temperature (°C),LED temperature (°C),Box temperature (°C),Sample RH (%),Span deviation,Mass concentration (μg/m³),Mass concentration (μg/m³),Mass concentration (μg/m³)
DateTimeUTC,F1_M11,P_M11,Q1_M11,Q2_M11,T1_M11,T2_M11,T3_M11,T4_M11,T5_M11,U1_M11,ZSPAN_M11,X2_M11,X0_M11,X1_M11
2022-07-05 16:00:00,,0826.8,5.01,0.00,29.7,28.5,00.0,38.4,31.6,27.9,0000.0,0004.76,0010.09,0004.14
2022-07-05 16:01:00,,0826.9,5.00,0.00,29.7,28.6,00.0,38.4,31.6,28.0,0000.0,0004.75,0009.58,0004.17
2022-07-05 16:02:00,,0826.8,4.99,0.00,29.7,28.7,00.0,38.4,31.7,28.1,0000.0,0004.78,0009.54,0004.21
2022-07-05 16:03:00,,0826.8,5.00,0.00,29.7,28.3,00.0,38.4,31.7,28.1,0000.0,0004.81,0009.54,0004.23
2022-07-05 16:04:00,,0826.8,5.01,0.00,29.7,27.6,00.0,38.3,31.5,28.0,0000.0,0004.85,0009.69,0004.25
2022-07-05 16:05:00,,0826.8,5.00,0.00,29.7,27.3,00.0,38.3,31.4,28.0,0000.0,0004.88,0009.63,0004.27
2022-07-05 16:06:00,,0826.8,5.01,0.00,29.6,27.3,00.0,38.3,31.4,28.3,-001.0,0004.90,0009.48,0004.28
2022-07-05 16:07:00,,0826.8,4.99,0.00,29.5,27.4,00.0,38.3,31.3,28.3,-000.2,0004.89,0009.52,0004.29
2022-07-05 16:08:00,,0826.8,5.01,0.00,29.5,27.6,00.0,38.3,31.3,28.3,0000.4,0004.92,0009.60,0004.31
2022-07-05 16:09:00,,0826.8,5.01,0.00,29.5,27.7,00.0,38.3,31.3,28.3,0001.9,0004.92,0009.42,0004.32
2022-07-05 16:10:00,,0826.8,5.00,0.00,29.5,27.9,00.0,38.3,31.4,28.6,0000.8,0004.95,0009.32,0004.34
2022-07-05 16:11:00,,0826.9,5.00,0.00,29.5,28.1,00.0,38.3,31.4,28.3,0000.0,0004.98,0009.34,0004.35
2022-07-05 16:12:00,,0826.8,5.01,0.00,29.6,28.2,00.0,38.3,31.5,28.5,0000.0,0005.03,0009.46,0004.36
2022-07-05 16:13:00,,0826.7,5.00,0.00,29.6,28.3,00.0,38.3,31.5,28.3,-000.7,0005.03,0009.45,0004.36
2022-07-05 16:14:00,,0826.8,4.99,0.00,29.6,28.5,00.0,38.3,31.6,28.2,-000.6,0005.05,0009.51,0004.38
2022-07-05 16:15:00,,0826.8,4.99,0.00,29.7,28.6,00.0,38.4,31.6,28.0,-000.9,0005.08,0009.49,0004.40
2022-07-05 16:16:00,,0826.8,5.00,0.00,29.7,28.5,00.0,38.4,31.6,27.9,-000.7,0005.10,0009.72,0004.44
2022-07-05 16:17:00,,0826.8,5.01,0.00,29.7,27.8,00.0,38.3,31.5,28.1,-000.5,0005.10,0010.29,0004.47
2022-07-05 16:18:00,,0826.8,5.01,0.00,29.6,27.3,00.0,38.3,31.4,28.0,-000.8,0005.14,0010.68,0004.50
2022-07-05 16:19:00,,0826.7,5.00,0.00,29.6,27.3,00.0,38.3,31.4,28.2,-001.4,0005.14,0010.80,0004.52
2022-07-05 16:20:00,,0826.7,5.00,0.00,29.5,27.4,00.0,38.3,31.3,28.3,-000.8,0005.17,0010.85,0004.54
2022-07-05 16:21:00,,0826.8,5.00,0.00,29.5,27.5,00.0,38.3,31.3,28.7,-000.1,0005.19,0010.72,0004.56
2022-07-05 16:22:00,,0826.8,5.00,0.00,29.5,27.7,00.0,38.2,31.3,28.7,0002.1,0005.21,0010.79,0004.58
2022-07-05 16:23:00,,0826.8,5.01,0.00,29.5,27.9,00.0,38.2,31.3,28.7,0002.6,0005.22,0010.84,0004.59
2022-07-05 16:24:00,,0826.8,5.00,0.00,29.5,28.0,00.0,38.3,31.4,28.6,0002.4,0005.22,0010.85,0004.60
2022-07-05 16:25:00,,0826.8,5.00,0.00,29.5,28.2,00.0,38.3,31.4,29.0,0002.2,0005.26,0010.92,0004.62
2022-07-05 16:26:00,,0826.8,5.01,0.00,29.6,28.3,00.0,38.3,31.5,29.1,0002.7,0005.24,0010.84,0004.63
2022-07-05 16:27:00,,0826.8,5.00,0.00,29.6,28.4,00.0,38.3,31.6,28.9,0003.1,0005.22,0010.71,0004.62
2022-07-05 16:28:00,,0826.7,5.01,0.00,29.6,28.5,00.0,38.3,31.6,28.7,0003.1,0005.22,0010.67,0004.61
2022-07-05 16:29:00,,0826.8,5.00,0.00,29.6,28.0,00.0,38.3,31.5,28.3,0002.7,0005.18,0010.11,0004.59
2022-07-05 16:30:00,,0826.8,4.99,0.00,29.6,27.4,00.0,38.2,31.4,28.2,0002.8,0005.17,0009.89,0004.58
2022-07-05 16:31:00,,0826.8,5.00,0.00,29.5,27.3,00.0,38.2,31.3,28.2,0002.5,0005.17,0009.71,0004.57
2022-07-05 16:32:00,,0826.8,5.00,0.00,29.5,27.3,00.0,38.2,31.3,28.2,0002.7,0005.14,0009.56,0004.53
2022-07-05 16:33:00,,0826.7,5.00,0.00,29.5,27.5,00.0,38.2,31.3,28.1,0002.1,0005.16,0009.83,0004.51
2022-07-05 16:34:00,,0826.7,5.01,0.00,29.5,27.6,00.0,38.2,31.3,28.3,0000.0,0005.15,0009.92,0004.48
2022-07-05 16:35:00,,0826.7,4.99,0.00,29.5,27.8,00.0,38.2,31.3,28.2,-000.0,0005.16,0010.05,0004.46
2022-07-05 16:36:00,,0826.7,5.00,0.00,29.5,28.0,00.0,38.2,31.4,28.2,-000.5,0005.12,0009.98,0004.43
2022-07-05 16:37:00,,0826.7,5.00,0.00,29.5,28.1,00.0,38.2,31.4,28.3,-001.9,0005.11,0009.95,0004.41
2022-07-05 16:38:00,,0826.7,5.00,0.00,29.5,28.3,00.0,38.3,31.5,28.2,-002.7,0005.10,0010.00,0004.38
2022-07-05 16:39:00,,0826.7,5.01,0.00,29.6,28.4,00.0,38.3,31.5,27.8,-001.1,0005.05,0009.36,0004.34
2022-07-05 16:40:00,,0826.7,5.00,0.00,29.6,28.4,00.0,38.3,31.5,28.0,0000.0,0005.06,0009.75,0004.32
2022-07-05 16:41:00,,0826.6,4.99,0.00,29.6,27.7,00.0,38.2,31.5,27.7,0000.0,0005.03,0009.70,0004.29
2022-07-05 16:42:00,,0826.7,4.99,0.00,29.5,27.3,00.0,38.2,31.4,27.9,0000.0,0005.02,0010.37,0004.28
2022-07-05 16:43:00,,0826.7,5.00,0.00,29.5,27.3,00.0,38.2,31.3,28.4,0000.0,0005.01,0010.77,0004.28
2022-07-05 16:44:00,,0826.7,5.00,0.00,29.4,27.4,00.0,38.2,31.2,28.7,0000.0,0004.95,0011.26,0004.28
2022-07-05 16:45:00,,0826.6,5.00,0.00,29.4,27.5,00.0,38.2,31.2,28.4,-000.3,0004.91,0011.10,0004.26
2022-07-05 16:46:00,,0826.7,4.99,0.00,29.4,27.7,00.0,38.2,31.3,28.2,0000.0,0004.90,0011.02,0004.25
2022-07-05 16:47:00,,0826.7,5.00,0.00,29.4,27.9,00.0,38.2,31.3,27.9,0000.0,0004.92,0011.09,0004.24
2022-07-05 16:48:00,,0826.7,5.00,0.00,29.4,28.0,00.0,38.2,31.4,28.2,0000.0,0004.92,0011.54,0004.22
2022-07-05 16:49:00,,0826.7,5.00,0.00,29.5,28.2,00.0,38.2,31.4,28.2,0000.0,0004.95,0012.14,0004.22
2022-07-05 16:50:00,,0826.7,5.00,0.00,29.5,28.3,00.0,38.2,31.5,27.8,0000.0,0004.95,0012.48,0004.22
2022-07-05 16:51:00,,0826.7,5.00,0.00,29.5,28.5,00.0,38.2,31.5,27.9,0000.0,0004.94,0012.61,0004.20
2022-07-05 16:52:00,,0826.7,4.99,0.00,29.6,28.2,00.0,38.2,31.5,27.8,0000.0,0004.96,0012.65,0004.19
2022-07-05 16:53:00,,0826.7,5.01,0.00,29.5,27.6,00.0,38.2,31.4,27.8,0000.0,0004.93,0011.92,0004.17
2022-07-05 16:54:00,,0826.7,5.00,0.00,29.5,27.3,00.0,38.1,31.3,27.8,0000.0,0004.93,0011.67,0004.15
2022-07-05 16:55:00,,0826.7,5.00,0.00,29.5,27.3,00.0,38.2,31.3,28.0,0000.0,0004.94,0010.82,0004.13
2022-07-05 16:56:00,,0826.6,5.00,0.00,29.4,27.4,00.0,38.2,31.2,28.2,0000.0,0004.95,0012.41,0004.13
2022-07-05 16:57:00,,0826.6,5.00,0.00,29.4,27.6,00.0,38.2,31.2,28.0,0000.0,0004.94,0013.15,0004.12
2022-07-05 16:58:00,,0826.6,5.01,0.00,29.4,27.7,00.0,38.2,31.3,27.9,0000.0,0004.90,0013.12,0004.12
2022-07-05 16:59:00,,0826.6,4.99,0.00,29.4,27.9,00.0,38.2,31.3,28.2,0000.0,0004.88,0012.74,0004.11
